Location: *
(45.9500°N, 9.0833°E)
Time: 19:54:21
(UTC+00:00)

A-11 Canister half - Visible Passes

Search period start: 13 June 2021 00:00
Search period end: 23 June 2021 00:00
Orbit: 1527 x 1681 km, 47.3° (Epoch: 12 June)

Date Brightness Start Highest point End Pass type
(mag) Time Alt. Az. Time Alt. Az. Time Alt. Az.
13 Jun 9.0 00:07:15 25° SW 00:12:56 59° SSE 00:22:01 10° ENE visible
13 Jun 9.0 02:08:22 10° W 02:17:44 86° N 02:27:11 10° E visible
13 Jun 10.0 21:47:30 19° SE 21:47:54 19° SE 21:53:54 10° E visible
13 Jun 9.0 23:45:42 25° SW 23:51:20 57° SSE 00:00:21 10° ENE visible
14 Jun 9.0 01:46:42 10° W 01:56:04 86° N 02:05:30 10° E visible
14 Jun 10.0 21:25:43 18° SE 21:26:20 18° SE 21:32:03 10° E visible
14 Jun 9.0 23:23:53 24° SSW 23:29:43 55° SE 23:38:40 10° ENE visible
15 Jun 9.0 01:25:02 10° WSW 01:34:24 87° NNW 01:43:50 10° E visible
15 Jun 10.1 21:03:30 16° SE 21:04:47 17° SE 21:10:09 10° E visible
15 Jun 9.0 23:01:36 20° SSW 23:08:06 53° SE 23:17:01 10° ENE visible
16 Jun 9.0 01:03:22 10° WSW 01:12:45 88° NNW 01:22:09 10° E visible
16 Jun 10.1 20:40:10 13° SSE 20:43:14 16° SE 20:48:14 10° E visible
16 Jun 9.1 22:38:06 12° SW 22:46:30 51° SE 22:55:21 10° ENE visible
17 Jun 8.9 00:41:42 10° WSW 00:51:05 89° NNW 01:00:29 10° ENE visible
17 Jun 9.1 02:47:00 10° W 02:56:22 87° NNE 03:05:51 10° ESE visible
17 Jun 10.2 20:17:04 10° SSE 20:21:41 15° SE 20:26:15 10° E visible
17 Jun 9.1 22:16:00 10° SW 22:24:53 49° SE 22:33:40 10° ENE visible
18 Jun 8.9 00:20:02 10° WSW 00:29:26 90° SSE 00:38:49 10° ENE visible
18 Jun 9.1 02:25:20 10° W 02:34:42 86° N 02:44:09 10° E visible
18 Jun 10.2 19:56:00 10° SSE 20:00:08 14° SE 20:04:13 10° E visible
18 Jun 9.1 21:54:27 10° SSW 22:03:17 47° SE 22:12:01 10° ENE visible
18 Jun 8.9 23:58:22 10° WSW 00:07:47 88° SSE 00:17:09 10° ENE visible
19 Jun 9.1 02:03:41 10° W 02:13:03 86° N 02:22:29 10° E visible
19 Jun 9.2 21:32:54 10° SSW 21:41:41 45° SE 21:50:20 10° ENE visible
19 Jun 8.9 23:36:42 10° WSW 23:46:07 87° SSE 23:55:29 10° ENE visible
20 Jun 9.0 01:42:00 10° W 01:51:23 85° N 02:00:48 10° E visible
20 Jun 9.2 21:11:22 10° SSW 21:20:05 43° SE 21:28:40 10° ENE visible
20 Jun 8.9 23:15:03 10° WSW 23:24:28 86° SSE 23:33:50 10° ENE visible
21 Jun 9.0 01:20:20 10° W 01:29:43 84° N 01:39:07 10° E visible
21 Jun 9.2 20:49:50 10° SSW 20:58:29 41° SE 21:06:59 10° ENE visible
21 Jun 8.9 22:53:23 10° WSW 23:02:49 84° SSE 23:12:10 10° ENE visible
22 Jun 9.0 00:58:40 10° W 01:08:03 84° N 01:17:27 10° E visible
22 Jun 9.3 20:28:18 10° SSW 20:36:53 40° SE 20:45:18 10° ENE visible
22 Jun 8.9 22:31:43 10° WSW 22:41:10 83° SSE 22:50:31 10° ENE visible
